Regional Weather Roundup
Issued by NWS New Orleans/Baton Rouge, LA

Home | Current Version | Previous Version | Text Only | Print | Product List | Glossary On
Versions: 1 2 3 4 5 6 7 8 9 10 11 12 13 14 15 16 17 18 19 20 21 22 23 24 25 26 27 28 29 30 31 32 33 34 35 36 37 38 39 40 41 42 43 44 45 46 47 48 49 50
815
ASUS44 KLIX 250005
RWRLIX
NEW ORLEANS REGIONAL WEATHER ROUNDUP
NATIONAL WEATHER SERVICE NEW ORLEANS LA
700 PM CDT THU JUL 24 2014

NOTE: "FAIR" INDICATES FEW OR NO CLOUDS BELOW 12,000 FEET WITH NO
      SIGNIFICANT WEATHER AND/OR OBSTRUCTIONS TO VISIBILITY.
      SKY/WX - SKY CONDITION AND SIGNIFICANT WEATHER.
      TMP - AIR TEMPERATURE.     DP    - DEWPOINT TEMPERATURE.
      RH  - RELATIVE HUMIDITY.   PRES  - PRESSURE.
      HI  - HEAT INDEX.          WCI   - WIND CHILL INDEX.

*  THESE STATIONS ARE NOT NWS OR FAA STATIONS AND ARE NOT UNDER
   NWS QUALITY CONTROL.

LAZ038-040-048-061>063-065>067-069-250100-
SOUTHEAST LOUISIANA

CITY           SKY/WX    TMP DP  RH WIND       PRES   REMARKS
N.O. AUDUBON   NOT AVBL
N.O. INTL ARPT MOSUNNY   86  75  69 S6        29.93S HX  95
6HR MIN TEMP:  84; 6HR MAX TEMP:  89;

N.O. LAKEFRONT SUNNY     86  70  58 W5        29.93S
6HR MIN TEMP:  85; 6HR MAX TEMP:  88;

N.O. DOWNTOWN*   N/A     88  70  55 SW5       29.93S
6HR MIN TEMP:  81; 6HR MAX TEMP:  90; 6HR PCP:  0.02;

SLIDELL        SUNNY     86  74  67 S3        29.92S
6HR MIN TEMP:  77; 6HR MAX TEMP:  89; 6HR PCP:  0.68;

BATON ROUGE    MOSUNNY   80  71  74 N3        29.94S
6HR MIN TEMP:  78; 6HR MAX TEMP:  90; 6HR PCP:  0.03;

BOOTHVILLE     MOSUNNY   83  75  77 SW9       29.94F
6HR MIN TEMP:  83; 6HR MAX TEMP:  85;

BELLE CHASSE   PTSUNNY   84  75  74 W3        29.93S
6HR MIN TEMP:  76; 6HR MAX TEMP:  89; 6HR PCP:  0.42;

BOGALUSA*        N/A     89  73  60 S3        29.94S HX  97
6HR MIN TEMP:  88; 6HR MAX TEMP:  92;

GALLIANO*      NOT AVBL
NEW ROADS*       N/A     87  75  67 N5        29.93F HX  96
6HR MIN TEMP:  85; 6HR MAX TEMP:  89;

GONZALES*        N/A     86  75  68 N3        29.92F HX  95
6HR MIN TEMP:  86; 6HR MAX TEMP:  91;

HAMMOND*       SUNNY     90  66  45 CALM      29.94F
HOUMA*         LGT RAIN  84  72  65 SE5       29.93S
PORT FOURCHON* MOCLDY    84  75  74 NW5G12    29.96S

$$

MSZ070-080>082-250100-
SOUTHERN MISSISSIPPI

CITY           SKY/WX    TMP DP  RH WIND       PRES   REMARKS
MCCOMB         CLOUDY    82  73  74 NW7       29.95S
6HR MIN TEMP:  82; 6HR MAX TEMP:  90;

GULFPORT       MOSUNNY   87  73  62 SW5       29.93S
6HR MIN TEMP:  87; 6HR MAX TEMP:  89;

BILOXI         SUNNY     83  73  72 S8        29.93S
6HR MIN TEMP:  83; 6HR MAX TEMP:  86;

PASCAGOULA     CLEAR     83  72  69 S8        29.94R
6HR MIN TEMP:  83; 6HR MAX TEMP:  87;

STENNIS ARPT*  SUNNY    N/A N/A N/A CALM      29.93S

$$

COASTAL OBSERVATIONS
LAKE AND NEARSHORE STATIONS

STATION/POSITION TIME  TEMP    WIND        PRES    WAVE
                       AIR SEA DIR/SP/G            HT/PER
                 (UTC) (F)     (DEG/KT/KT) (MB)    (FT/S)
PASCAGOULA       0000   85     200/  9/ 12 1013.4
WAVELAND YACHT   0000   83     190/  5/  6 1013.0
GRAND ISLE       0000   78 85  250/ 12/ 20 1014.7
SOUTHWEST PASS   0000   85 85  250/ 10/ 12 1014.5
NEW CANAL        0000   87 85   10/  2/  3 1014.0
SHELL BEACH      0000   85 81  350/  2/  3 1013.4

OFFSHORE STATIONS

STATION/POSITION TIME  TEMP    WIND        PRES    WAVE
                       AIR SEA DIR/SP/G            HT/PER
                 (UTC) (F)     (DEG/KT/KT) (MB)    (FT/S)

$$




USA.gov is the U.S. government's official web portal to all federal, state and local government web resources and services.